Vorticity
9 5 10 11 12 10 9 15 13 9 8 8 8 6 7 6 9 4 -1 3 2 5 4 5 7 6 4 6 4 -1 8 7 2 6 6 7 2 4 6 5 5 4 5 4 5 5 4 5 5 5 4 4 4 4 4 4 4 4 5 5 5 5 6 5 5 4 4 5 3 6 4 2 1 1 6 0 2 7 10 13 11 11 10 11 11 9 7 6 6 5 5 5 6 6 6 6 6
10 6 6 4 5 8 10 10 8 10 10 7 9 8 7 6 11 12 6 5 4 7 7 4 9 9 5 7 5 2 7 5 3 5 7 5 2 6 6 6 5 4 6 4 5 5 5 6 5 5 4 4 3 4 5 4 5 4 5 5 5 5 6 6 5 4 4 5 4 5 3 8 6 -3 3 -1 1 9 10 10 9 10 10 11 12 10 7 6 6 4 4 4 6 8 7 6 6
11 11 7 6 8 8 11 9 8 12 10 10 13 12 10 4 2 8 11 9 8 12 12 6 6 7 8 8 5 5 5 4 4 6 7 4 4 8 7 6 5 4 5 4 5 5 5 5 5 5 4 4 3 4 4 5 5 5 5 4 5 5 5 6 5 5 4 5 5 5 2 11 13 -3 -2 -2 1 11 9 7 8 9 10 10 11 9 8 7 5 4 4 4 6 8 8 7 6
8 13 8 5 10 8 10 8 8 12 11 14 15 12 9 11 9 8 12 11 9 6 5 6 6 4 8 6 5 6 3 4 4 5 5 4 8 6 6 6 4 4 4 5 5 5 5 5 5 4 4 4 3 4 4 5 5 4 5 4 5 4 5 6 6 6 4 4 4 7 5 12 20 4 -3 -1 2 11 9 7 8 9 10 10 11 10 9 8 5 5 4 4 6 7 7 7 8
7 11 7 3 9 6 8 8 6 8 10 13 13 9 7 15 16 8 8 5 3 5 1 3 6 3 7 7 7 6 7 11 9 8 7 5 8 5 5 5 5 5 4 5 5 5 4 4 5 4 5 4 4 4 4 4 5 4 4 4 4 4 5 5 6 5 4 5 3 6 5 9 19 7 -1 1 4 10 7 6 8 8 10 11 10 10 10 9 7 5 4 5 6 7 7 6 7
8 8 6 5 8 6 6 7 7 8 9 9 10 11 13 20 18 6 7 5 3 8 4 0 5 3 4 8 8 7 8 11 8 8 8 4 4 5 6 6 6 6 5 5 4 5 4 4 4 4 5 5 5 4 4 5 4 4 4 4 4 4 4 5 5 5 4 4 3 6 5 6 14 8 -1 -1 4 9 8 6 8 8 10 11 9 9 10 9 8 6 4 4 6 7 7 6 7
8 8 8 5 6 7 4 5 8 9 9 7 9 11 13 19 17 7 9 14 7 6 6 4 9 7 5 9 8 8 7 3 4 6 6 4 4 6 7 6 7 6 6 5 4 5 3 5 4 4 5 4 5 4 5 4 4 4 4 4 4 4 4 4 4 4 4 4 4 5 5 5 9 8 1 -3 1 7 8 7 7 9 10 10 8 8 8 9 9 6 5 4 6 8 7 7 8
8 8 9 5 5 6 3 7 9 9 10 8 9 11 10 11 15 13 11 14 12 9 8 3 5 5 4 9 7 9 10 5 5 7 6 4 4 5 5 5 6 6 6 6 5 5 4 5 4 4 4 4 4 4 5 4 4 4 4 4 4 4 4 5 4 4 4 4 4 4 5 5 5 8 6 -1 -2 1 6 8 7 8 9 9 7 6 7 7 8 7 6 5 6 8 9 8 9
6 5 5 6 5 4 4 7 8 8 9 8 8 10 10 7 9 13 10 10 15 15 11 5 6 7 3 6 8 6 6 6 6 7 6 4 4 4 4 5 6 6 7 7 6 5 5 5 5 4 4 5 4 4 5 4 4 4 4 4 4 4 4 5 4 4 4 4 5 3 3 5 5 7 9 6 -0 -3 4 9 8 8 9 8 7 5 6 6 6 8 7 6 7 9 10 9 10
5 7 5 7 5 3 6 7 6 7 8 7 8 11 12 8 7 8 6 10 19 19 15 11 8 10 7 3 5 5 5 6 7 6 4 5 5 3 4 5 5 6 6 7 7 6 6 6 5 5 5 5 5 5 5 4 4 4 4 4 5 4 4 5 4 4 4 4 4 4 4 3 5 4 9 17 8 -2 4 9 8 7 8 7 7 5 4 6 6 7 8 7 7 8 10 8 9
0 5 5 5 4 4 6 7 6 8 8 6 8 9 9 8 8 10 9 9 15 17 18 17 9 10 13 7 5 6 7 6 6 6 5 6 4 3 3 4 5 5 5 5 6 6 6 7 6 6 5 5 5 5 5 5 5 4 4 4 5 5 5 4 4 5 4 5 4 4 6 3 6 3 8 20 7 -2 5 7 7 6 8 7 6 6 4 6 6 7 9 8 7 8 11 10 9
-1 -2 3 6 5 5 7 8 7 6 6 6 9 9 8 9 7 10 15 11 10 11 15 21 13 9 11 10 9 6 6 7 7 6 6 7 5 5 4 3 5 5 6 5 5 6 5 5 5 5 5 6 5 5 5 5 5 5 5 4 5 5 5 5 5 6 4 5 5 4 6 5 7 4 8 17 4 -1 6 5 6 6 8 7 7 7 4 5 6 8 9 9 9 9 12 11 10
5 -1 1 6 4 5 7 7 8 5 5 9 10 8 6 8 9 9 13 11 10 11 10 14 13 14 17 14 16 11 5 4 6 8 7 7 6 5 4 2 4 4 5 5 5 6 5 5 5 5 5 5 5 6 5 6 6 5 5 4 5 5 5 6 6 6 5 5 6 6 6 5 7 5 7 14 7 1 4 5 5 5 7 7 8 6 3 5 5 7 9 9 9 9 11 10 10
10 7 2 6 8 7 6 6 8 7 6 10 10 9 9 7 11 11 11 12 11 13 11 9 10 12 13 14 22 20 11 8 4 6 7 7 8 6 5 4 4 5 5 4 5 5 5 6 6 5 5 5 5 6 6 6 6 6 6 5 4 5 5 6 6 6 6 5 5 6 6 5 6 7 7 10 12 7 3 6 6 5 7 7 8 7 4 5 5 6 8 8 8 8 9 8 9
5 5 2 5 7 6 7 8 8 8 7 10 12 9 11 9 9 8 9 14 13 14 14 8 10 11 5 5 15 15 14 18 11 5 7 7 7 6 6 6 6 5 5 5 4 4 4 5 6 6 5 5 5 5 5 5 5 5 5 5 5 5 5 5 6 6 6 6 6 5 6 7 5 6 7 6 12 13 5 4 7 7 6 6 7 8 7 7 7 7 8 9 8 7 9 9 9
3 -0 4 6 6 7 6 6 6 10 7 8 12 9 15 14 7 7 4 8 11 12 10 3 9 12 8 7 8 7 8 17 19 11 5 6 7 6 6 7 7 7 6 7 6 4 5 5 6 6 5 5 6 5 5 5 5 5 4 4 5 5 5 5 5 5 6 6 6 6 5 6 6 5 7 6 8 11 7 4 4 5 5 7 7 6 7 6 6 6 8 11 9 6 5 4 4
1 -4 4 5 4 9 5 4 7 10 8 6 11 10 16 14 6 11 8 8 9 8 9 5 10 12 9 12 10 8 7 10 21 20 7 2 4 4 5 6 6 6 6 6 6 6 6 6 6 5 6 6 6 6 6 5 5 4 3 4 6 5 5 6 6 6 6 6 6 6 6 5 5 4 4 6 6 8 10 8 4 5 7 8 7 5 5 6 5 5 6 8 10 9 6 2 -2
-4 -8 2 7 6 8 5 4 8 7 7 7 9 9 9 11 11 12 9 8 8 9 12 8 11 12 8 11 10 9 9 7 14 22 16 6 3 4 5 6 5 5 5 5 5 6 6 6 6 5 6 6 6 7 6 6 5 4 4 6 8 6 4 5 5 6 5 6 6 5 7 5 4 2 -0 2 2 4 11 10 5 4 6 8 6 4 5 5 4 4 5 5 7 9 10 11 5
-1 -1 -1 6 7 5 7 5 5 6 8 6 6 11 10 10 13 13 10 7 6 10 11 8 11 13 14 14 11 11 11 8 9 14 13 9 9 6 3 4 5 5 4 5 6 6 6 6 7 6 6 7 7 6 7 6 3 6 5 4 8 6 5 5 3 6 6 5 6 6 6 6 5 3 4 9 4 3 9 6 3 4 5 8 6 4 5 4 4 4 3 4 6 7 8 13 11
4 7 2 6 6 6 10 6 2 4 9 8 6 7 8 9 10 11 12 11 8 9 6 6 12 12 14 15 12 12 13 13 11 10 7 9 17 11 6 7 5 6 5 4 5 6 6 5 5 6 5 7 7 6 7 5 4 9 6 3 8 7 4 5 3 5 6 5 6 5 4 4 5 3 5 14 11 6 7 5 6 8 6 6 5 5 4 2 3 1 -2 2 5 6 8 10 11
1 2 5 1 1 10 9 4 3 6 6 4 5 2 3 9 11 9 9 15 10 7 8 6 13 10 6 10 10 10 12 12 9 11 9 8 15 13 11 10 7 10 10 5 4 7 9 7 5 6 6 5 6 5 5 4 6 8 6 4 7 6 4 5 5 6 6 5 6 4 2 2 5 5 2 7 9 5 4 9 13 11 8 8 7 6 4 1 5 6 2 5 5 4 5 7 10
-2 -4 9 -0 -1 12 4 4 2 5 7 0 7 3 3 7 9 12 8 14 11 8 10 6 14 11 3 9 9 8 9 11 9 11 13 10 9 11 12 10 9 12 11 8 7 8 10 9 7 7 7 7 6 5 5 5 5 5 6 5 5 6 5 5 6 7 6 2 3 5 5 4 4 5 4 5 7 2 -2 9 16 11 9 9 7 7 4 -0 1 -0 -7 -9 -3 4 6 5 9
10 0 6 3 3 9 0 4 2 7 8 -3 8 4 4 9 4 10 10 14 14 7 7 7 12 6 5 11 8 8 9 11 11 7 10 14 12 9 10 6 4 6 6 7 7 6 6 7 8 7 8 11 9 5 5 4 4 5 5 5 6 6 4 5 7 6 4 2 4 5 6 7 5 5 6 6 8 4 1 9 18 13 6 5 4 3 4 3 1 2 2 -1 -1 6 8 6 7
3 4 -1 5 3 7 2 1 -2 8 10 -2 8 5 5 9 2 7 13 16 13 11 11 8 8 7 13 14 8 12 12 11 10 8 6 9 14 9 9 12 10 10 9 7 8 7 5 6 7 6 8 8 7 4 4 5 6 7 7 7 6 6 7 6 4 5 6 6 8 6 5 6 4 6 7 7 8 8 9 12 16 12 4 0 -1 -2 -1 3 5 9 22 21 9 6 8 8 8
-7 8 1 6 -0 7 7 5 3 3 10 5 3 7 5 2 9 14 11 15 16 18 15 6 5 5 8 10 11 11 10 12 11 11 7 3 11 11 9 13 12 12 11 8 7 6 6 11 9 6 8 5 4 5 5 7 9 9 8 7 6 6 7 5 5 9 8 4 5 4 4 5 3 6 8 6 7 5 8 13 12 10 9 5 2 6 6 4 3 3 12 16 9 4 6 8 8
11 12 3 5 -1 10 4 3 11 1 7 10 1 7 6 -2 11 15 4 12 19 15 8 7 8 5 6 12 13 5 3 11 12 14 14 7 5 8 9 5 9 13 11 7 8 11 12 17 12 6 10 9 8 8 8 8 6 7 8 9 10 12 7 2 6 8 6 6 5 4 4 3 0 3 6 5 4 2 4 10 9 7 12 14 12 14 11 5 3 -1 2 8 6 3 3 6 6
15 1 4 2 -6 5 3 6 12 3 7 10 3 3 7 5 9 11 6 10 17 16 13 13 6 8 21 18 13 11 6 9 16 15 12 13 6 10 13 2 8 10 7 14 14 13 13 12 11 10 12 10 8 6 6 7 5 5 7 10 13 17 15 5 5 9 11 13 11 9 8 7 5 7 9 5 3 4 5 6 4 2 7 16 15 11 10 10 8 4 4 4 2 3 7 7 6
11 4 3 -8 2 6 -2 11 9 1 8 11 6 4 8 8 6 13 13 4 9 17 21 23 10 11 25 18 14 15 3 -2 13 14 4 16 19 15 18 12 14 11 12 22 15 9 9 11 15 17 15 11 11 9 7 9 10 11 5 6 9 10 13 6 5 12 11 11 15 13 10 10 10 13 17 14 6 5 7 6 6 6 8 13 12 9 12 12 7 6 7 4 1 4 6 4 5
-4 7 3 -24 9 19 -2 9 9 2 7 10 8 7 7 5 7 11 7 -4 3 14 18 24 15 9 14 13 16 15 7 -0 8 15 7 19 24 15 22 18 10 11 16 17 13 14 14 12 11 12 14 13 15 15 14 11 9 14 8 5 8 5 10 9 6 12 8 5 10 7 7 9 5 7 16 19 14 8 9 10 11 12 10 9 10 9 9 6 4 6 5 6 7 5 2 1 4
-9 0 7 -19 -3 3 -2 8 9 5 4 7 11 12 5 2 8 6 7 4 2 11 11 15 14 9 9 8 10 8 9 8 6 12 11 16 22 23 30 18 4 10 15 11 15 23 20 14 8 7 10 9 13 14 14 13 6 11 14 10 10 7 10 12 6 7 8 11 12 5 5 11 8 7 9 11 14 12 12 12 13 18 14 10 10 8 4 4 7 7 4 6 10 6 2 1 3
12 -3 -14 -6 12 -8 -5 10 6 6 3 5 7 9 3 2 13 4 8 14 4 9 7 8 13 12 13 8 9 6 3 8 5 6 6 6 14 17 16 9 9 13 12 10 9 11 13 13 10 9 12 11 14 10 7 14 10 8 12 12 14 15 13 12 6 4 6 11 17 10 3 6 12 13 7 4 6 8 9 6 10 21 20 13 10 7 7 8 9 9 9 9 7 5 3 0 -1
17 15 -22 -13 16 -7 -3 12 3 0 4 8 3 13 10 -4 14 10 4 13 7 9 8 6 10 8 13 9 10 11 5 7 2 2 6 5 3 -0 -4 -5 3 8 9 13 8 6 9 8 8 9 11 12 14 9 8 15 11 6 8 5 9 15 13 12 11 12 13 8 6 6 1 3 12 14 8 6 7 9 11 7 10 19 17 9 7 9 10 10 12 14 12 8 5 3 1 -1 -3
-2 24 1 -14 11 7 7 8 -4 -4 5 9 0 17 13 -17 1 11 7 15 6 5 8 8 9 7 10 9 10 11 7 7 5 7 9 4 -2 -1 8 4 0 6 7 8 8 9 10 8 9 10 10 12 13 8 8 14 11 9 8 3 11 16 9 7 9 13 20 15 8 6 3 5 15 17 9 8 9 8 10 9 9 16 16 10 8 11 13 12 17 18 12 6 3 2 -0 -0 1
-1 17 10 -8 14 12 -5 -10 -12 -6 5 12 5 10 9 -3 10 9 6 15 6 6 10 7 7 6 6 6 9 10 9 8 6 5 2 2 2 3 12 5 -2 9 8 7 11 8 9 8 5 8 9 9 13 9 7 11 10 10 7 3 13 16 8 7 10 12 16 18 16 12 10 13 20 19 8 7 9 5 6 8 6 8 11 12 12 12 11 12 15 13 9 6 1 1 4 3 6
-7 10 15 1 22 10 -12 -3 -6 -11 2 19 16 3 -2 8 16 5 5 13 7 7 7 5 7 6 5 5 5 6 9 7 6 8 3 8 12 6 8 5 4 9 6 7 10 8 12 13 9 10 7 4 7 6 11 16 10 10 13 8 6 7 10 11 11 14 14 15 15 13 15 15 13 11 7 10 13 9 8 8 7 5 4 7 10 10 9 11 11 9 12 13 2 3 11 8 6
0 17 18 -5 5 0 -1 16 -2 -17 -1 15 15 7 3 2 2 5 9 8 8 8 3 3 2 2 5 4 3 4 6 5 7 10 7 8 11 8 9 10 8 4 0 1 -1 3 10 9 12 10 4 10 9 2 10 14 8 13 15 12 9 8 12 9 8 15 16 14 12 11 15 13 8 7 7 11 13 12 12 10 9 9 8 6 5 5 9 12 13 14 17 16 6 5 13 12 9
4 9 9 -0 7 6 6 1 -20 -13 8 8 7 9 7 -2 -0 16 17 7 6 3 1 5 2 2 3 3 5 5 4 5 6 9 8 7 6 8 9 6 5 4 4 6 4 5 4 1 9 7 -2 8 13 6 9 7 9 19 17 14 16 17 18 8 4 12 12 11 11 10 10 10 13 13 9 9 9 9 10 12 12 11 10 9 8 7 7 10 12 14 16 12 7 8 11 12 15
7 -6 -10 9 28 18 -1 -11 -13 6 13 1 4 11 11 14 14 16 15 7 5 3 2 4 4 3 2 2 6 6 5 6 7 7 7 7 5 5 7 4 5 7 3 4 6 7 5 5 10 9 0 1 6 7 8 6 7 18 22 17 8 11 25 21 11 10 8 11 14 15 12 8 10 13 12 11 10 10 11 17 19 12 11 11 9 8 6 8 10 14 18 13 7 8 11 14 18
6 -3 -10 2 22 15 -1 4 8 9 10 10 18 11 7 21 11 1 11 5 5 13 4 -2 3 5 5 5 4 5 7 8 8 8 6 7 7 5 6 6 6 7 6 5 6 6 6 7 7 9 7 5 6 4 6 9 9 14 21 19 5 -0 10 13 9 8 8 11 12 11 10 8 9 11 11 10 9 11 9 15 21 14 12 13 7 6 9 9 8 8 15 16 10 8 12 20 23
-22 -6 12 2 5 13 5 7 8 9 15 15 17 4 -1 12 -3 -6 14 5 3 14 3 1 8 2 4 7 4 3 5 9 11 10 8 5 5 7 7 9 9 7 9 8 8 8 6 7 7 8 8 7 9 7 6 9 11 13 16 17 14 5 1 4 7 10 11 11 11 10 8 8 11 11 11 10 9 10 5 10 22 18 12 13 10 10 11 9 8 9 10 11 10 7 9 20 23
-11 7 30 6 -12 -7 -7 -1 7 12 3 -9 1 5 0 5 1 6 19 8 6 10 3 9 12 -0 3 7 3 2 1 5 10 8 7 5 2 6 6 8 11 9 9 9 9 10 8 9 9 9 8 7 9 10 9 9 9 12 13 14 15 12 9 10 11 12 12 9 9 13 12 10 9 8 8 8 9 13 11 12 20 20 15 14 13 12 11 8 8 9 9 9 10 10 7 13 16
13 17 15 9 4 -2 2 8 6 8 1 -9 3 13 9 9 17 22 16 8 4 -1 1 11 14 3 1 7 6 4 4 5 7 5 5 6 5 4 5 8 10 9 9 9 9 10 10 11 11 9 9 8 9 12 11 9 8 9 11 11 12 13 11 8 8 8 9 10 9 9 11 10 8 9 9 6 3 3 6 12 12 12 16 17 16 15 13 11 9 8 9 9 10 11 8 8 11
4 8 -3 2 13 2 7 9 -1 11 13 1 5 16 18 11 10 2 -8 4 7 -0 4 9 14 8 0 10 9 2 5 6 8 9 5 6 6 4 6 9 9 9 10 10 9 9 9 9 10 9 8 8 9 11 11 10 8 8 9 9 9 11 9 7 7 6 6 9 9 8 9 9 7 9 10 9 5 -4 -2 11 11 6 11 14 15 17 17 14 11 8 8 9 8 8 8 9 8
-16 6 9 7 12 3 12 16 10 20 11 -3 5 9 4 1 6 1 -9 2 11 10 14 14 17 14 5 7 8 5 5 3 7 11 6 3 3 2 5 9 10 8 8 9 9 8 7 7 8 8 7 8 8 7 9 9 8 8 9 9 9 9 8 4 -1 -1 3 6 7 8 9 9 7 5 7 7 6 1 -0 8 8 5 8 9 9 16 22 20 14 11 8 6 6 8 9 9 8
-10 12 20 12 16 16 21 19 12 15 8 6 13 5 4 10 12 10 0 -3 7 12 12 17 18 11 5 0 2 11 9 3 6 8 5 1 1 2 4 8 12 10 8 7 7 6 6 6 6 7 6 6 7 6 5 5 6 7 7 8 9 8 5 -1 -7 -6 2 6 7 8 8 9 10 8 7 6 6 6 4 5 4 3 6 6 7 10 17 20 17 17 17 9 7 10 9 9 11
-11 3 18 11 9 7 7 9 4 -4 -6 6 15 11 10 6 -1 3 6 3 9 9 0 9 15 7 9 5 -3 4 10 10 5 2 4 1 -0 4 4 6 9 10 10 6 5 5 4 6 6 6 7 6 6 6 5 4 4 5 6 6 7 8 6 2 0 1 5 8 7 7 7 7 9 8 8 8 8 8 7 7 6 5 5 5 5 5 8 15 13 15 21 16 11 12 9 9 11
-4 2 15 16 12 6 2 11 17 1 -7 9 22 22 9 -1 3 4 4 8 11 7 2 10 14 7 12 12 0 -0 10 12 -1 -4 4 1 2 5 3 5 6 7 10 7 6 6 4 6 6 6 8 8 9 8 8 7 6 7 8 8 7 7 8 7 7 6 7 8 6 6 6 5 6 6 6 7 7 7 7 9 9 8 9 6 5 4 4 9 9 9 17 18 14 14 12 10 10
3 5 10 16 11 8 6 8 14 5 5 15 11 10 8 6 15 8 4 23 25 12 9 11 10 8 9 6 1 1 8 10 0 -0 6 2 4 6 1 3 4 5 9 7 7 6 5 7 7 8 8 8 10 10 9 9 9 10 10 11 11 9 9 8 8 9 7 7 7 7 6 6 6 6 6 5 5 6 7 7 8 8 10 10 9 8 5 5 6 7 12 15 16 19 17 12 10
-6 -3 1 7 2 3 6 2 3 5 15 20 5 9 14 -2 2 7 3 13 15 8 8 6 3 6 7 4 1 4 9 8 3 7 11 4 3 6 4 4 3 6 8 8 7 5 6 7 6 8 8 8 10 9 10 10 9 10 9 10 12 10 10 9 8 9 9 9 9 8 8 8 9 8 8 7 6 7 7 7 9 8 8 10 10 10 8 6 5 5 8 7 11 19 20 16 15
-4 -2 -1 4 8 11 14 9 5 6 7 4 -1 8 9 -6 2 13 4 5 11 13 15 11 5 5 9 10 4 5 9 4 4 12 8 -1 0 4 4 4 3 6 9 10 8 5 5 5 5 7 8 7 8 8 10 9 8 10 9 9 9 9 9 9 8 8 8 9 9 8 9 8 8 9 8 8 8 8 8 8 9 9 8 9 10 11 11 10 8 7 8 6 7 13 17 18 19
10 3 6 8 10 6 6 9 6 3 3 6 8 5 0 7 19 9 -0 11 12 8 12 10 7 7 11 15 7 2 7 3 5 11 0 -6 2 3 1 2 2 5 9 11 10 7 5 5 5 6 7 7 8 8 9 10 10 9 9 9 8 8 9 8 9 9 8 9 8 9 9 8 8 8 8 9 8 8 8 8 8 10 8 7 8 9 10 11 11 9 7 6 6 8 10 12 14
-6 -6 13 8 5 -2 -9 1 8 3 7 17 15 2 -1 11 16 1 -1 12 8 4 13 11 5 5 10 17 9 -1 5 9 7 6 0 1 6 2 -0 2 2 5 9 9 9 9 6 6 5 3 4 6 7 9 10 11 11 9 8 8 6 6 7 6 7 7 7 7 7 7 8 8 8 8 9 9 9 9 10 9 9 9 8 7 6 6 7 8 10 11 10 8 6 6 8 7 7
-3 2 11 2 2 1 -6 4 12 7 8 13 7 4 16 18 13 6 4 9 5 2 16 21 8 2 6 11 8 5 8 8 6 1 0 5 4 1 2 1 3 7 8 9 10 9 8 8 6 4 3 4 5 8 10 11 11 9 6 4 4 4 3 4 4 4 5 4 5 5 5 5 6 6 7 7 7 8 8 9 10 9 9 9 7 6 6 6 6 10 12 11 8 7 7 6 6
7 -7 -10 4 16 11 9 11 6 2 3 6 7 10 11 0 -6 -3 -1 9 7 -5 13 28 17 21 27 8 4 26 29 14 9 5 2 5 4 1 1 -1 4 6 5 9 10 6 7 7 7 6 4 5 6 7 8 10 9 8 6 3 2 3 2 3 3 3 4 3 3 4 3 4 4 3 4 4 5 5 5 6 7 8 9 9 9 8 8 8 7 8 9 9 9 10 9 7 6
13 7 -4 3 6 -0 10 11 1 5 6 5 11 9 -1 -4 3 7 7 14 6 -6 9 15 6 22 33 11 8 38 45 27 11 -4 -12 -4 1 2 2 0 3 3 5 10 8 2 3 5 7 8 6 7 9 10 10 9 9 7 6 4 2 1 1 2 2 2 3 3 3 3 3 4 4 4 4 4 4 4 4 4 4 5 6 6 7 8 8 9 9 8 8 7 8 10 10 10 9
15 32 16 -1 -2 0 11 7 -5 2 5 2 5 3 4 12 13 7 6 10 8 3 9 8 2 6 14 23 29 25 15 8 -1 -14 -16 -5 1 1 2 4 3 1 4 8 4 -1 -0 3 8 9 10 10 11 12 12 10 10 8 6 5 3 3 2 2 3 3 3 4 4 4 4 5 5 5 5 5 5 5 5 5 4 4 5 5 6 5 5 7 8 9 9 8 8 9 9 11 11
10 17 9 4 11 12 14 9 4 10 9 4 5 6 10 11 2 -1 3 9 8 3 4 9 12 8 5 16 16 -3 -10 -1 5 5 6 13 13 -0 -7 3 8 4 4 6 3 1 0 2 7 10 12 12 10 11 10 9 11 9 7 6 3 3 3 3 4 5 4 5 5 6 6 6 5 5 6 5 5 5 5 5 5 5 5 5 6 6 5 5 5 7 8 8 8 8 8 9 9
-3 -2 4 8 10 10 16 14 9 8 4 2 5 6 6 6 7 9 6 6 4 1 8 13 12 9 8 9 6 4 8 11 13 13 10 15 19 4 -7 3 8 2 4 8 4 3 5 6 9 11 13 12 9 8 7 7 8 7 7 7 4 3 2 1 2 2 3 4 4 6 6 5 5 4 4 4 5 6 6 6 7 6 6 6 6 7 6 6 5 5 6 7 8 8 8 8 8
Height
5903 5902 5901 5902 5901 5901 5901 5902 5902 5901 5900 5900 5900 5900 5900 5900 5899 5900 5899 5899 5899 5898 5898 5898 5898 5898 5898 5899 5901 5901 5902 5903 5903 5903 5903 5904 5904 5904 5905 5905 5905 5906 5906 5906 5906 5907 5907 5907 5907 5907 5907 5907 5907 5907 5907 5907 5907 5907 5907 5907 5907 5907 5907 5906 5905 5904 5903 5903 5903 5902 5901 5900 5900 5899 5898 5897 5897 5897 5896 5895 5894 5894 5893 5892 5891 5890 5890 5889 5889 5889 5889 5888 5888 5887 5886 5885 5885
5905 5905 5903 5902 5903 5903 5902 5902 5901 5901 5901 5901 5901 5900 5900 5900 5900 5901 5900 5899 5898 5897 5897 5897 5897 5897 5898 5899 5901 5901 5902 5903 5904 5903 5903 5904 5904 5905 5905 5905 5906 5906 5906 5907 5907 5907 5907 5908 5907 5907 5907 5907 5907 5907 5907 5907 5907 5907 5907 5907 5907 5907 5907 5906 5905 5905 5904 5904 5903 5902 5901 5901 5900 5900 5898 5898 5898 5897 5896 5896 5895 5894 5893 5892 5891 5890 5890 5889 5889 5889 5889 5889 5888 5887 5887 5886 5885
5908 5908 5906 5905 5904 5903 5901 5902 5901 5901 5901 5902 5902 5901 5901 5901 5901 5901 5900 5899 5898 5897 5899 5899 5899 5899 5900 5901 5901 5902 5902 5903 5904 5904 5903 5904 5904 5905 5905 5906 5906 5906 5906 5907 5907 5907 5908 5908 5907 5907 5907 5907 5907 5907 5907 5907 5907 5907 5907 5907 5907 5907 5907 5907 5906 5905 5905 5904 5903 5903 5902 5902 5901 5900 5899 5899 5898 5898 5897 5896 5895 5894 5893 5892 5892 5891 5890 5890 5889 5889 5889 5889 5888 5888 5887 5886 5886
5910 5910 5909 5906 5905 5904 5903 5904 5903 5903 5902 5902 5903 5902 5901 5901 5901 5901 5901 5901 5900 5900 5901 5901 5901 5901 5902 5902 5902 5902 5902 5902 5903 5903 5904 5904 5904 5905 5905 5906 5906 5906 5906 5907 5907 5907 5907 5908 5908 5907 5907 5907 5907 5907 5907 5907 5907 5907 5907 5907 5907 5907 5907 5907 5907 5906 5905 5904 5904 5903 5903 5902 5901 5901 5900 5899 5899 5898 5897 5896 5896 5895 5894 5893 5892 5891 5891 5890 5889 5889 5889 5889 5889 5888 5888 5887 5886
5911 5910 5907 5905 5906 5906 5906 5905 5904 5904 5904 5903 5903 5902 5902 5901 5902 5903 5902 5902 5901 5901 5901 5900 5901 5901 5901 5901 5901 5901 5901 5902 5902 5903 5904 5904 5905 5905 5905 5906 5906 5906 5906 5907 5907 5907 5907 5907 5908 5907 5907 5907 5907 5907 5907 5907 5907 5907 5907 5907 5907 5907 5907 5907 5907 5906 5905 5904 5903 5904 5904 5902 5902 5901 5900 5900 5899 5898 5897 5897 5896 5895 5895 5894 5893 5892 5891 5891 5890 5889 5889 5889 5889 5888 5888 5887 5887
5913 5911 5908 5907 5907 5907 5906 5905 5906 5906 5905 5904 5903 5903 5904 5904 5904 5903 5902 5902 5903 5902 5901 5900 5900 5901 5902 5902 5901 5901 5901 5903 5903 5904 5905 5905 5905 5905 5905 5906 5906 5906 5906 5907 5907 5907 5907 5907 5907 5907 5907 5907 5907 5907 5907 5907 5907 5907 5907 5907 5907 5907 5907 5907 5907 5906 5906 5905 5904 5903 5904 5903 5902 5901 5901 5900 5899 5899 5898 5897 5896 5896 5895 5895 5894 5893 5892 5891 5890 5889 5889 5889 5889 5889 5888 5888 5887
5915 5912 5910 5909 5909 5908 5907 5907 5908 5908 5906 5905 5904 5905 5906 5904 5903 5903 5902 5903 5904 5904 5903 5902 5901 5902 5903 5904 5903 5903 5903 5903 5904 5905 5905 5905 5906 5905 5906 5906 5906 5906 5906 5907 5907 5907 5907 5907 5907 5907 5907 5907 5907 5907 5907 5907 5907 5906 5906 5906 5907 5907 5907 5907 5907 5906 5906 5905 5904 5903 5903 5903 5902 5902 5901 5901 5900 5899 5898 5897 5896 5896 5895 5895 5894 5893 5893 5892 5891 5890 5889 5889 5889 5889 5888 5888 5888
5915 5914 5913 5912 5911 5909 5910 5910 5910 5910 5908 5907 5906 5907 5906 5904 5903 5904 5903 5903 5904 5904 5903 5903 5903 5904 5905 5906 5906 5905 5905 5905 5905 5905 5905 5905 5905 5905 5905 5906 5906 5907 5907 5907 5907 5908 5907 5907 5907 5907 5907 5907 5907 5907 5907 5907 5906 5906 5906 5906 5906 5907 5907 5907 5907 5906 5905 5905 5904 5903 5903 5903 5903 5902 5902 5901 5900 5899 5898 5897 5897 5896 5896 5895 5895 5894 5893 5892 5892 5891 5890 5889 5889 5889 5889 5888 5888
5916 5915 5914 5914 5912 5911 5913 5913 5911 5911 5910 5909 5908 5908 5907 5905 5904 5904 5904 5904 5904 5904 5903 5904 5905 5905 5904 5905 5906 5906 5907 5907 5906 5905 5905 5905 5905 5905 5905 5905 5906 5907 5908 5908 5908 5908 5908 5907 5907 5907 5907 5907 5907 5907 5907 5907 5907 5906 5906 5906 5906 5906 5907 5907 5906 5906 5905 5904 5904 5903 5903 5903 5903 5903 5902 5901 5901 5900 5899 5898 5898 5897 5896 5896 5895 5894 5894 5893 5893 5892 5891 5890 5889 5889 5889 5888 5888
5919 5916 5915 5916 5914 5915 5916 5914 5913 5912 5911 5910 5909 5909 5908 5906 5904 5904 5904 5904 5904 5904 5903 5904 5905 5905 5904 5904 5905 5906 5907 5907 5906 5905 5905 5905 5905 5905 5906 5906 5907 5907 5908 5908 5908 5908 5908 5907 5907 5907 5907 5907 5907 5907 5907 5907 5907 5907 5906 5906 5906 5906 5906 5906 5906 5905 5905 5904 5904 5903 5903 5903 5903 5903 5902 5902 5901 5901 5900 5899 5899 5898 5897 5896 5895 5895 5894 5894 5894 5893 5892 5891 5890 5890 5889 5889 5889
5920 5918 5916 5917 5918 5918 5918 5916 5915 5914 5913 5912 5910 5908 5907 5906 5906 5905 5905 5904 5904 5903 5903 5903 5904 5905 5906 5904 5904 5905 5906 5906 5906 5906 5906 5906 5905 5905 5906 5906 5907 5907 5907 5907 5907 5907 5907 5907 5907 5907 5907 5907 5907 5907 5907 5907 5907 5907 5907 5906 5907 5906 5906 5906 5905 5905 5904 5904 5904 5904 5903 5903 5903 5903 5903 5902 5902 5902 5901 5900 5899 5899 5898 5897 5897 5896 5895 5895 5895 5894 5893 5891 5890 5890 5890 5889 5889
5921 5919 5918 5920 5921 5920 5919 5918 5916 5914 5913 5913 5911 5908 5907 5908 5907 5906 5906 5905 5904 5904 5904 5904 5904 5904 5905 5905 5904 5904 5905 5906 5906 5906 5906 5906 5906 5905 5905 5905 5906 5906 5906 5906 5906 5906 5906 5906 5906 5907 5907 5907 5907 5907 5907 5907 5907 5907 5907 5906 5906 5906 5906 5906 5905 5905 5904 5904 5904 5904 5904 5904 5904 5904 5904 5903 5903 5902 5901 5901 5900 5899 5899 5898 5898 5897 5896 5896 5896 5895 5894 5893 5891 5890 5890 5890 5889
5922 5921 5921 5923 5922 5921 5921 5919 5917 5916 5914 5914 5914 5910 5909 5910 5908 5907 5906 5906 5906 5906 5906 5905 5905 5905 5905 5905 5905 5905 5905 5906 5907 5906 5907 5907 5906 5905 5905 5905 5905 5906 5906 5906 5906 5906 5906 5906 5907 5907 5907 5907 5907 5907 5907 5907 5907 5907 5907 5906 5906 5906 5906 5906 5905 5905 5904 5904 5904 5904 5904 5904 5904 5904 5905 5904 5904 5903 5902 5901 5900 5900 5899 5899 5899 5898 5897 5897 5897 5897 5896 5895 5893 5892 5891 5890 5890
5923 5923 5924 5925 5924 5923 5922 5920 5919 5917 5914 5915 5917 5914 5912 5912 5910 5907 5906 5907 5907 5907 5907 5907 5907 5906 5906 5906 5906 5906 5906 5907 5907 5907 5907 5907 5906 5905 5905 5905 5906 5906 5906 5906 5907 5907 5907 5907 5907 5907 5907 5908 5908 5908 5908 5908 5907 5907 5907 5906 5906 5906 5906 5906 5905 5905 5904 5904 5904 5904 5904 5904 5904 5904 5905 5905 5904 5903 5902 5902 5901 5900 5900 5899 5899 5899 5898 5898 5898 5897 5897 5896 5896 5894 5892 5891 5891
5926 5926 5927 5927 5926 5925 5923 5922 5920 5918 5916 5918 5920 5918 5914 5913 5911 5909 5906 5907 5907 5907 5907 5907 5907 5907 5907 5906 5906 5906 5906 5907 5906 5906 5906 5907 5906 5906 5906 5906 5906 5906 5906 5907 5907 5907 5907 5908 5908 5908 5908 5908 5908 5908 5907 5907 5907 5906 5906 5906 5906 5906 5906 5905 5905 5905 5905 5904 5904 5904 5904 5904 5904 5904 5904 5904 5904 5903 5903 5902 5902 5901 5901 5900 5900 5900 5899 5898 5898 5897 5897 5897 5897 5895 5894 5893 5892
5928 5930 5930 5929 5928 5926 5925 5923 5921 5919 5918 5920 5921 5918 5916 5913 5913 5911 5909 5908 5908 5908 5907 5907 5907 5907 5906 5905 5906 5906 5906 5906 5906 5905 5906 5906 5906 5906 5906 5906 5907 5907 5907 5907 5907 5907 5908 5908 5908 5908 5908 5908 5908 5907 5907 5906 5906 5906 5906 5906 5906 5906 5906 5905 5905 5905 5905 5904 5904 5904 5904 5904 5904 5903 5903 5903 5903 5903 5902 5902 5902 5902 5901 5901 5901 5900 5900 5899 5898 5898 5897 5897 5897 5897 5895 5893 5893
5930 5932 5932 5931 5929 5928 5926 5925 5923 5921 5920 5921 5919 5918 5918 5915 5914 5912 5910 5909 5908 5908 5907 5906 5905 5904 5904 5904 5904 5905 5906 5906 5905 5905 5906 5906 5906 5906 5906 5906 5907 5907 5907 5907 5907 5907 5908 5908 5907 5907 5907 5908 5908 5907 5907 5906 5906 5906 5906 5906 5906 5906 5906 5905 5905 5905 5904 5904 5904 5903 5903 5903 5903 5902 5902 5902 5902 5902 5902 5902 5901 5901 5901 5901 5901 5900 5900 5899 5899 5898 5898 5897 5898 5897 5896 5894 5893
5933 5934 5933 5931 5930 5929 5928 5927 5925 5923 5922 5922 5920 5918 5918 5917 5915 5913 5911 5909 5908 5909 5908 5907 5905 5904 5904 5904 5904 5905 5906 5906 5906 5906 5907 5907 5906 5906 5906 5906 5907 5907 5907 5907 5907 5907 5907 5907 5907 5907 5907 5908 5908 5907 5907 5907 5907 5906 5907 5906 5906 5906 5906 5905 5904 5904 5904 5903 5903 5903 5903 5902 5902 5902 5902 5902 5902 5902 5902 5901 5901 5901 5900 5901 5900 5900 5899 5899 5899 5899 5898 5897 5897 5897 5896 5895 5893
5936 5935 5934 5933 5931 5931 5929 5928 5927 5924 5923 5922 5921 5919 5918 5917 5915 5913 5912 5910 5908 5908 5908 5908 5906 5905 5905 5905 5904 5905 5906 5906 5907 5908 5907 5906 5905 5906 5907 5907 5907 5907 5907 5907 5907 5907 5907 5907 5907 5907 5907 5907 5907 5907 5906 5906 5906 5906 5907 5906 5906 5906 5905 5905 5904 5903 5903 5902 5902 5902 5902 5901 5901 5901 5901 5901 5901 5901 5900 5900 5901 5900 5900 5899 5899 5899 5899 5898 5898 5898 5898 5897 5897 5897 5897 5895 5894
5938 5935 5934 5934 5933 5932 5931 5930 5927 5925 5924 5923 5923 5920 5918 5916 5914 5913 5912 5911 5909 5906 5906 5906 5905 5905 5905 5904 5904 5904 5905 5907 5908 5908 5907 5906 5906 5907 5907 5906 5906 5906 5907 5907 5907 5906 5906 5905 5906 5906 5906 5907 5907 5906 5905 5905 5905 5905 5905 5905 5905 5905 5904 5904 5902 5902 5901 5901 5901 5901 5901 5901 5900 5900 5900 5900 5900 5899 5899 5899 5900 5899 5898 5898 5898 5898 5898 5897 5897 5897 5897 5897 5897 5897 5896 5896 5895
5940 5936 5934 5935 5935 5934 5932 5930 5928 5926 5924 5923 5923 5920 5918 5917 5915 5913 5912 5911 5909 5906 5905 5904 5904 5906 5906 5904 5903 5904 5905 5906 5907 5907 5906 5905 5905 5907 5906 5905 5906 5907 5906 5906 5906 5906 5905 5905 5905 5905 5906 5906 5906 5906 5905 5904 5904 5904 5904 5904 5904 5903 5903 5903 5901 5901 5900 5900 5900 5900 5900 5900 5900 5899 5899 5899 5899 5899 5899 5899 5898 5898 5898 5897 5897 5897 5897 5897 5896 5897 5897 5896 5896 5896 5896 5896 5895
5941 5938 5935 5935 5937 5936 5932 5930 5929 5927 5924 5923 5922 5921 5919 5918 5916 5915 5913 5911 5909 5907 5905 5904 5904 5906 5906 5903 5904 5904 5904 5904 5905 5905 5903 5903 5904 5906 5906 5905 5905 5906 5905 5905 5907 5907 5905 5904 5904 5904 5905 5905 5905 5905 5904 5903 5902 5902 5902 5902 5902 5902 5902 5902 5900 5899 5899 5899 5899 5898 5898 5899 5899 5899 5899 5899 5898 5898 5898 5898 5898 5898 5898 5897 5897 5897 5897 5897 5897 5896 5896 5896 5896 5896 5896 5896 5896
5942 5940 5936 5935 5938 5937 5933 5932 5931 5929 5926 5924 5923 5921 5920 5919 5917 5916 5915 5913 5911 5909 5907 5905 5904 5905 5905 5903 5903 5903 5902 5902 5903 5902 5902 5902 5904 5906 5906 5905 5904 5904 5905 5905 5905 5905 5904 5904 5904 5903 5903 5904 5903 5903 5903 5902 5902 5901 5901 5901 5901 5902 5902 5901 5899 5898 5898 5898 5898 5898 5898 5898 5897 5898 5898 5899 5898 5898 5898 5898 5898 5898 5898 5898 5898 5897 5897 5897 5896 5896 5895 5895 5896 5896 5896 5896 5895
5942 5941 5937 5936 5939 5939 5936 5935 5934 5931 5928 5926 5924 5923 5922 5921 5919 5917 5916 5914 5912 5911 5909 5908 5906 5905 5904 5903 5903 5902 5901 5901 5902 5901 5902 5903 5904 5904 5904 5903 5903 5904 5904 5903 5902 5902 5902 5902 5902 5902 5902 5902 5902 5901 5901 5901 5901 5901 5901 5901 5901 5901 5901 5900 5898 5897 5896 5896 5895 5896 5897 5896 5895 5896 5897 5898 5898 5898 5898 5898 5898 5898 5898 5897 5897 5897 5897 5897 5896 5895 5894 5894 5895 5896 5896 5895 5894
5944 5942 5939 5936 5939 5941 5939 5937 5935 5933 5931 5928 5926 5925 5924 5922 5921 5919 5916 5915 5915 5914 5911 5909 5907 5905 5904 5904 5904 5904 5903 5903 5903 5903 5904 5904 5903 5902 5902 5902 5902 5902 5902 5902 5901 5901 5901 5901 5901 5901 5901 5901 5901 5901 5901 5900 5900 5900 5900 5900 5900 5900 5899 5898 5897 5896 5895 5895 5895 5894 5895 5894 5894 5895 5896 5897 5897 5897 5896 5896 5897 5897 5896 5896 5895 5896 5897 5896 5895 5894 5894 5894 5895 5896 5896 5895 5894
5946 5943 5940 5936 5938 5941 5941 5938 5936 5934 5932 5930 5928 5927 5926 5924 5923 5921 5918 5917 5918 5917 5913 5910 5908 5907 5906 5906 5905 5905 5906 5905 5905 5904 5904 5904 5902 5902 5902 5902 5901 5901 5901 5901 5901 5901 5901 5901 5901 5900 5900 5901 5901 5900 5900 5900 5899 5899 5899 5899 5899 5898 5898 5898 5897 5896 5894 5895 5896 5894 5894 5893 5893 5894 5894 5894 5893 5894 5894 5894 5895 5894 5894 5894 5894 5895 5896 5895 5894 5894 5894 5894 5894 5895 5895 5895 5894
5946 5944 5942 5939 5938 5940 5942 5940 5937 5936 5934 5931 5930 5928 5926 5926 5924 5923 5921 5919 5918 5918 5915 5912 5910 5909 5908 5907 5906 5905 5906 5907 5907 5905 5904 5904 5903 5903 5903 5903 5902 5902 5902 5902 5902 5902 5902 5901 5900 5899 5899 5900 5900 5899 5899 5899 5899 5898 5898 5898 5898 5897 5897 5896 5896 5895 5894 5896 5894 5893 5894 5893 5893 5893 5893 5892 5891 5892 5892 5893 5893 5893 5892 5892 5893 5893 5894 5895 5894 5893 5894 5894 5894 5894 5895 5895 5895
5946 5944 5942 5941 5940 5938 5941 5941 5937 5935 5935 5932 5931 5929 5928 5927 5926 5924 5923 5921 5919 5919 5918 5915 5912 5911 5909 5907 5907 5908 5908 5909 5909 5906 5906 5906 5905 5904 5903 5903 5903 5903 5903 5902 5902 5902 5901 5900 5899 5899 5899 5899 5899 5898 5897 5898 5898 5897 5897 5897 5896 5895 5895 5894 5893 5893 5894 5894 5892 5891 5892 5892 5891 5891 5891 5891 5890 5891 5891 5891 5892 5892 5891 5891 5892 5891 5892 5892 5892 5892 5893 5894 5894 5893 5894 5895 5894
5948 5946 5944 5943 5943 5941 5941 5941 5938 5935 5934 5933 5932 5930 5929 5927 5926 5924 5923 5923 5921 5920 5920 5917 5915 5914 5912 5910 5908 5909 5909 5909 5909 5907 5907 5908 5906 5905 5904 5903 5904 5905 5904 5903 5902 5902 5901 5900 5900 5900 5900 5899 5898 5897 5897 5897 5897 5896 5895 5895 5895 5894 5893 5892 5891 5892 5893 5892 5891 5891 5890 5889 5889 5890 5890 5890 5889 5889 5890 5889 5889 5889 5889 5890 5890 5890 5890 5889 5889 5890 5891 5893 5893 5893 5893 5894 5894
5947 5945 5946 5944 5942 5943 5943 5942 5940 5937 5934 5932 5931 5930 5930 5928 5926 5925 5923 5922 5922 5922 5921 5918 5917 5916 5915 5913 5910 5910 5910 5909 5909 5907 5907 5909 5908 5907 5906 5904 5904 5904 5903 5902 5901 5901 5901 5901 5901 5900 5899 5898 5897 5896 5896 5895 5894 5894 5894 5894 5894 5893 5891 5890 5890 5890 5891 5891 5890 5889 5888 5887 5887 5888 5889 5889 5888 5888 5888 5888 5887 5887 5888 5889 5889 5888 5888 5888 5888 5888 5889 5890 5891 5892 5893 5893 5893
5947 5944 5944 5943 5941 5942 5944 5943 5940 5938 5935 5932 5932 5930 5931 5930 5928 5927 5924 5921 5922 5925 5924 5919 5918 5917 5916 5915 5914 5913 5912 5912 5911 5908 5906 5907 5908 5909 5908 5906 5905 5903 5903 5903 5902 5901 5901 5901 5900 5899 5898 5897 5897 5896 5895 5894 5894 5893 5894 5894 5894 5892 5891 5890 5889 5889 5890 5890 5889 5888 5887 5886 5885 5886 5887 5887 5887 5887 5886 5886 5886 5886 5886 5887 5887 5886 5886 5887 5887 5887 5888 5889 5889 5890 5892 5893 5892
5950 5947 5945 5944 5942 5941 5943 5943 5939 5937 5936 5934 5932 5930 5931 5931 5929 5928 5925 5922 5923 5926 5925 5921 5918 5918 5918 5917 5917 5916 5915 5914 5913 5911 5907 5903 5904 5906 5908 5908 5905 5903 5903 5903 5902 5902 5901 5900 5899 5897 5896 5896 5896 5896 5895 5894 5894 5893 5893 5893 5893 5892 5891 5890 5889 5888 5888 5888 5889 5888 5887 5885 5883 5884 5885 5885 5885 5885 5884 5884 5884 5884 5885 5884 5885 5885 5885 5886 5886 5886 5887 5888 5888 5889 5891 5892 5891
5955 5951 5951 5949 5943 5940 5940 5941 5940 5937 5936 5934 5931 5929 5930 5931 5931 5929 5926 5924 5925 5926 5926 5923 5920 5919 5919 5919 5919 5918 5917 5916 5915 5913 5910 5905 5903 5903 5907 5910 5907 5903 5902 5901 5902 5901 5900 5899 5897 5896 5896 5895 5895 5895 5894 5893 5893 5892 5893 5893 5892 5891 5890 5889 5889 5888 5886 5886 5887 5887 5887 5886 5884 5884 5884 5883 5882 5882 5882 5882 5882 5883 5883 5883 5883 5883 5884 5884 5885 5885 5886 5887 5887 5888 5889 5891 5890
5958 5956 5958 5955 5948 5943 5940 5939 5941 5940 5937 5935 5933 5929 5928 5930 5931 5930 5928 5926 5925 5926 5927 5925 5922 5920 5920 5920 5919 5919 5918 5916 5915 5914 5912 5910 5907 5903 5906 5910 5909 5908 5905 5902 5901 5901 5901 5899 5897 5896 5895 5895 5896 5896 5894 5891 5892 5892 5893 5892 5891 5890 5889 5889 5888 5887 5886 5885 5885 5885 5885 5885 5885 5885 5884 5882 5881 5881 5881 5881 5880 5881 5881 5881 5882 5882 5883 5884 5884 5884 5885 5886 5887 5886 5887 5889 5889
5957 5956 5957 5957 5954 5949 5941 5939 5942 5942 5940 5938 5935 5931 5928 5927 5930 5932 5930 5927 5924 5924 5927 5926 5923 5921 5919 5919 5919 5919 5918 5916 5915 5914 5914 5913 5911 5909 5908 5908 5909 5910 5909 5907 5905 5904 5903 5901 5899 5897 5895 5895 5897 5897 5895 5892 5892 5892 5892 5891 5890 5890 5888 5887 5887 5887 5885 5884 5883 5884 5884 5883 5883 5883 5881 5881 5880 5879 5879 5879 5878 5879 5880 5880 5881 5881 5882 5882 5883 5883 5884 5885 5885 5885 5886 5886 5887
5955 5955 5955 5957 5957 5951 5944 5940 5940 5941 5940 5938 5936 5933 5929 5926 5928 5932 5932 5929 5925 5923 5926 5927 5925 5921 5919 5919 5919 5919 5919 5917 5916 5916 5915 5914 5915 5913 5911 5908 5906 5906 5907 5906 5906 5906 5905 5905 5902 5898 5896 5896 5897 5897 5895 5893 5892 5891 5890 5890 5889 5888 5887 5887 5887 5886 5885 5884 5883 5883 5883 5882 5881 5880 5879 5879 5879 5878 5878 5878 5877 5878 5879 5879 5879 5880 5880 5881 5881 5881 5882 5882 5883 5883 5883 5884 5884
5954 5955 5955 5958 5960 5955 5946 5940 5939 5941 5940 5938 5937 5935 5932 5928 5928 5931 5933 5932 5927 5924 5925 5927 5927 5923 5920 5919 5920 5920 5919 5918 5917 5916 5916 5916 5916 5914 5912 5910 5907 5905 5903 5902 5902 5902 5903 5904 5901 5896 5895 5896 5897 5897 5896 5893 5892 5891 5889 5888 5888 5887 5887 5887 5887 5886 5885 5884 5882 5881 5881 5881 5880 5878 5878 5878 5877 5877 5878 5877 5877 5877 5877 5877 5877 5878 5878 5879 5879 5879 5879 5880 5880 5881 5881 5881 5881
5953 5955 5955 5958 5961 5956 5948 5944 5942 5942 5941 5940 5937 5935 5933 5930 5929 5930 5932 5933 5930 5926 5925 5925 5927 5926 5922 5920 5920 5920 5919 5918 5918 5917 5916 5915 5914 5913 5912 5911 5909 5906 5904 5903 5901 5899 5899 5900 5898 5894 5892 5892 5893 5896 5896 5895 5893 5892 5890 5888 5888 5888 5888 5888 5886 5885 5884 5883 5881 5881 5880 5880 5879 5878 5878 5877 5876 5876 5876 5876 5876 5875 5876 5877 5877 5877 5877 5877 5877 5877 5878 5878 5879 5880 5879 5878 5879
5953 5955 5956 5958 5959 5954 5949 5947 5945 5943 5942 5940 5938 5936 5934 5930 5929 5929 5931 5933 5931 5928 5927 5926 5926 5927 5925 5922 5920 5919 5919 5918 5919 5918 5916 5914 5913 5912 5911 5911 5910 5908 5907 5905 5902 5901 5900 5899 5898 5895 5891 5888 5888 5889 5892 5894 5893 5892 5892 5892 5891 5891 5890 5887 5884 5883 5882 5881 5881 5881 5880 5880 5878 5877 5877 5876 5876 5876 5875 5874 5874 5874 5875 5876 5876 5876 5875 5875 5875 5876 5877 5878 5878 5879 5878 5877 5877
5954 5955 5956 5959 5957 5953 5950 5945 5942 5942 5941 5939 5939 5938 5934 5932 5930 5928 5930 5932 5931 5928 5928 5927 5925 5925 5924 5922 5920 5918 5917 5917 5918 5918 5916 5914 5912 5911 5910 5909 5908 5908 5907 5906 5904 5903 5901 5900 5899 5897 5895 5891 5888 5887 5888 5890 5890 5891 5892 5892 5891 5890 5887 5883 5882 5882 5882 5881 5881 5881 5880 5878 5877 5877 5877 5876 5876 5877 5876 5875 5875 5875 5875 5875 5875 5874 5874 5874 5874 5875 5875 5876 5877 5878 5877 5876 5876
5957 5957 5957 5957 5954 5951 5950 5946 5942 5941 5939 5936 5937 5938 5933 5932 5931 5928 5929 5931 5930 5929 5928 5926 5924 5922 5922 5921 5918 5916 5916 5916 5917 5917 5916 5914 5912 5910 5909 5908 5907 5906 5906 5905 5904 5903 5901 5900 5899 5898 5896 5894 5892 5890 5889 5889 5888 5888 5888 5888 5887 5885 5883 5881 5882 5883 5882 5882 5881 5880 5880 5878 5878 5878 5877 5876 5876 5877 5878 5878 5877 5875 5873 5873 5873 5873 5873 5873 5873 5874 5874 5875 5876 5876 5875 5875 5875
5958 5958 5956 5954 5951 5950 5949 5948 5947 5946 5944 5938 5935 5937 5935 5932 5931 5930 5930 5931 5930 5928 5927 5926 5923 5921 5921 5921 5918 5916 5915 5915 5916 5916 5915 5913 5911 5909 5909 5908 5907 5906 5905 5904 5903 5902 5901 5900 5899 5897 5896 5894 5893 5892 5891 5890 5889 5888 5887 5887 5886 5885 5884 5883 5884 5883 5883 5882 5881 5880 5880 5879 5878 5878 5877 5876 5875 5876 5878 5879 5875 5872 5871 5872 5872 5872 5872 5872 5872 5873 5873 5874 5874 5874 5873 5873 5874
5957 5955 5952 5950 5949 5949 5947 5947 5947 5947 5948 5944 5937 5937 5935 5930 5928 5929 5929 5930 5930 5927 5926 5926 5924 5921 5921 5921 5919 5916 5915 5915 5914 5914 5913 5912 5910 5909 5909 5908 5907 5905 5905 5904 5902 5901 5900 5899 5898 5897 5896 5895 5893 5892 5892 5891 5890 5890 5889 5888 5887 5886 5885 5885 5884 5884 5883 5882 5881 5880 5880 5879 5878 5878 5877 5877 5876 5876 5879 5877 5871 5870 5870 5871 5872 5872 5871 5871 5871 5872 5872 5872 5873 5873 5872 5872 5873
5955 5951 5948 5948 5947 5947 5946 5945 5945 5945 5947 5947 5942 5938 5936 5931 5928 5927 5925 5925 5926 5925 5926 5926 5924 5922 5921 5921 5919 5916 5915 5915 5913 5911 5911 5910 5909 5908 5908 5907 5906 5905 5904 5903 5902 5901 5900 5899 5898 5896 5896 5895 5894 5893 5892 5891 5891 5890 5889 5888 5887 5886 5886 5885 5884 5883 5883 5882 5881 5880 5880 5880 5879 5879 5878 5878 5877 5876 5877 5873 5870 5870 5871 5871 5872 5871 5870 5870 5870 5871 5871 5871 5871 5871 5872 5872 5873
5952 5948 5945 5947 5946 5944 5944 5943 5944 5945 5944 5944 5941 5938 5936 5932 5929 5927 5923 5921 5922 5924 5926 5925 5922 5921 5922 5922 5920 5915 5914 5915 5911 5908 5907 5907 5906 5907 5906 5906 5906 5905 5904 5903 5901 5900 5899 5898 5897 5896 5895 5894 5893 5892 5891 5891 5890 5889 5889 5888 5887 5886 5885 5884 5883 5883 5882 5881 5881 5880 5879 5879 5878 5878 5877 5877 5875 5874 5873 5871 5870 5871 5871 5871 5870 5870 5869 5869 5869 5869 5869 5869 5870 5869 5870 5870 5870
5948 5945 5945 5945 5943 5943 5944 5944 5944 5943 5941 5941 5940 5937 5934 5931 5928 5928 5925 5920 5920 5922 5924 5923 5921 5921 5922 5922 5919 5913 5911 5912 5908 5903 5903 5904 5904 5905 5905 5905 5905 5904 5903 5902 5901 5900 5898 5897 5896 5895 5894 5893 5893 5892 5891 5890 5889 5889 5888 5887 5886 5885 5885 5884 5883 5882 5881 5881 5880 5879 5878 5877 5877 5876 5876 5875 5874 5873 5872 5871 5871 5871 5870 5870 5869 5868 5868 5868 5867 5867 5866 5867 5867 5867 5868 5869 5869
5946 5944 5945 5944 5943 5946 5946 5944 5942 5941 5939 5939 5939 5938 5936 5932 5927 5926 5925 5920 5918 5920 5921 5920 5919 5919 5920 5921 5917 5910 5907 5908 5906 5901 5901 5902 5902 5903 5904 5904 5904 5903 5902 5901 5900 5899 5897 5896 5895 5894 5894 5892 5892 5891 5890 5889 5888 5887 5887 5886 5885 5884 5884 5883 5882 5881 5881 5880 5879 5878 5877 5876 5875 5875 5874 5874 5873 5872 5871 5871 5870 5870 5869 5869 5868 5868 5867 5867 5866 5865 5864 5864 5864 5865 5866 5867 5867
5944 5944 5944 5943 5945 5946 5945 5943 5942 5941 5939 5939 5939 5938 5937 5932 5926 5923 5922 5920 5920 5920 5921 5919 5917 5917 5918 5919 5914 5908 5906 5907 5904 5901 5901 5901 5900 5901 5903 5903 5902 5901 5901 5900 5899 5898 5897 5896 5895 5894 5893 5891 5890 5889 5888 5887 5886 5886 5885 5884 5884 5883 5882 5881 5881 5880 5879 5879 5878 5877 5876 5875 5874 5874 5873 5872 5872 5871 5870 5869 5869 5868 5868 5867 5866 5866 5865 5865 5865 5864 5863 5863 5863 5863 5864 5865 5866
5943 5944 5944 5945 5946 5945 5944 5944 5944 5941 5939 5940 5940 5937 5934 5930 5926 5922 5919 5919 5921 5922 5922 5919 5916 5916 5917 5916 5912 5908 5908 5908 5905 5902 5902 5900 5898 5900 5901 5902 5901 5900 5899 5898 5897 5897 5896 5895 5894 5893 5891 5890 5889 5888 5887 5886 5885 5884 5883 5882 5882 5881 5881 5880 5879 5878 5878 5877 5877 5876 5875 5874 5873 5873 5872 5871 5870 5870 5869 5868 5867 5867 5866 5865 5864 5863 5863 5863 5863 5863 5862 5862 5861 5861 5861 5862 5863
5946 5948 5949 5948 5947 5945 5944 5944 5943 5941 5940 5941 5939 5934 5931 5929 5927 5924 5920 5917 5917 5920 5922 5919 5917 5917 5916 5914 5912 5910 5909 5907 5905 5903 5901 5897 5896 5898 5900 5900 5900 5899 5898 5897 5896 5895 5895 5894 5893 5891 5890 5889 5888 5886 5885 5884 5883 5882 5881 5881 5880 5879 5879 5878 5877 5877 5876 5875 5875 5874 5874 5873 5872 5871 5870 5869 5869 5868 5867 5866 5865 5865 5864 5864 5863 5862 5861 5861 5861 5861 5861 5860 5860 5859 5859 5860 5860
5945 5948 5949 5950 5947 5944 5944 5943 5941 5939 5938 5938 5936 5932 5930 5928 5927 5926 5923 5919 5915 5917 5922 5920 5916 5915 5913 5911 5911 5909 5908 5906 5903 5902 5899 5895 5895 5898 5899 5899 5899 5898 5897 5896 5895 5894 5893 5892 5891 5890 5889 5888 5886 5885 5884 5883 5882 5881 5880 5879 5878 5877 5877 5876 5876 5875 5874 5873 5873 5872 5872 5871 5870 5869 5869 5868 5867 5866 5865 5864 5863 5863 5862 5862 5861 5861 5860 5860 5860 5860 5859 5859 5859 5859 5859 5859 5859
5944 5945 5947 5948 5944 5942 5942 5940 5938 5937 5936 5935 5933 5929 5927 5926 5925 5924 5922 5919 5913 5914 5919 5918 5913 5910 5908 5908 5908 5907 5906 5903 5901 5900 5897 5894 5896 5898 5898 5897 5897 5897 5896 5895 5894 5893 5892 5891 5890 5889 5887 5886 5885 5884 5883 5881 5880 5879 5878 5877 5876 5876 5875 5874 5874 5873 5873 5872 5871 5870 5870 5869 5868 5868 5867 5866 5865 5864 5863 5862 5862 5861 5860 5860 5860 5859 5859 5859 5858 5858 5858 5857 5857 5857 5857 5858 5857
5943 5944 5946 5944 5939 5939 5941 5939 5936 5936 5935 5934 5932 5929 5923 5920 5920 5919 5917 5915 5912 5913 5916 5913 5908 5906 5905 5905 5906 5904 5903 5901 5901 5899 5897 5897 5898 5898 5896 5896 5895 5895 5895 5893 5892 5891 5890 5889 5888 5887 5886 5885 5883 5882 5881 5880 5879 5878 5876 5876 5875 5874 5873 5872 5872 5871 5871 5870 5870 5869 5868 5867 5866 5866 5865 5864 5863 5862 5861 5861 5860 5859 5859 5858 5858 5857 5857 5857 5856 5856 5856 5855 5855 5855 5855 5855 5855
5940 5941 5942 5940 5937 5939 5939 5937 5935 5935 5933 5933 5933 5928 5920 5915 5916 5918 5917 5915 5914 5914 5914 5911 5908 5907 5905 5905 5905 5903 5902 5902 5902 5902 5900 5900 5899 5896 5895 5895 5894 5893 5892 5891 5890 5889 5888 5887 5886 5885 5884 5882 5881 5880 5879 5878 5877 5875 5874 5873 5873 5872 5871 5870 5870 5869 5869 5868 5867 5867 5866 5865 5864 5864 5863 5862 5861 5860 5859 5858 5858 5857 5856 5856 5856 5855 5855 5854 5854 5853 5853 5853 5852 5852 5852 5852 5852
5937 5938 5937 5936 5937 5938 5937 5935 5933 5931 5931 5931 5931 5927 5920 5917 5917 5916 5916 5916 5915 5913 5912 5911 5909 5907 5906 5905 5904 5902 5902 5902 5902 5901 5900 5899 5897 5895 5894 5893 5892 5891 5890 5889 5888 5887 5886 5885 5883 5882 5881 5880 5879 5878 5877 5875 5874 5873 5872 5871 5870 5870 5869 5868 5867 5866 5866 5865 5865 5864 5863 5863 5862 5861 5860 5859 5859 5858 5857 5856 5855 5855 5854 5854 5853 5853 5852 5852 5851 5851 5850 5850 5850 5850 5849 5849 5849
5935 5935 5936 5935 5936 5935 5934 5933 5932 5930 5930 5930 5928 5924 5919 5919 5917 5913 5911 5912 5912 5912 5911 5909 5907 5905 5903 5902 5901 5900 5901 5901 5900 5899 5897 5895 5894 5893 5892 5891 5890 5889 5888 5887 5886 5884 5883 5882 5881 5880 5879 5878 5877 5875 5874 5873 5872 5871 5870 5869 5868 5867 5866 5865 5864 5864 5863 5862 5862 5861 5860 5860 5859 5858 5857 5856 5855 5855 5854 5853 5853 5852 5851 5851 5850 5850 5850 5849 5849 5848 5848 5847 5847 5847 5846 5846 5846
5936 5935 5937 5937 5936 5934 5932 5931 5932 5931 5929 5927 5925 5920 5916 5916 5915 5912 5909 5907 5908 5908 5907 5906 5905 5903 5901 5900 5899 5898 5898 5897 5897 5896 5894 5892 5891 5890 5889 5889 5887 5886 5885 5884 5883 5882 5881 5880 5878 5877 5876 5875 5874 5873 5871 5870 5870 5869 5868 5867 5866 5865 5863 5862 5861 5860 5860 5859 5858 5857 5857 5856 5855 5855 5854 5853 5852 5851 5850 5849 5849 5848 5848 5848 5847 5846 5846 5846 5846 5845 5844 5844 5844 5844 5843 5843 5843
5936 5935 5936 5936 5935 5933 5930 5930 5930 5928 5927 5926 5922 5916 5913 5914 5913 5911 5908 5906 5906 5905 5904 5904 5902 5901 5899 5898 5897 5896 5894 5893 5893 5891 5890 5889 5888 5888 5888 5887 5886 5884 5882 5881 5880 5879 5878 5877 5875 5874 5873 5872 5871 5870 5869 5868 5867 5866 5865 5864 5863 5861 5860 5859 5858 5857 5856 5855 5854 5853 5853 5852 5851 5851 5850 5849 5849 5848 5847 5846 5845 5844 5844 5843 5843 5843 5842 5842 5842 5842 5841 5841 5840 5841 5840 5840 5839